Weather in Luchki

Russia / Primorsky Krai     44°17′11″N   132°15′38″E
temp.,
°C
wind,
m/s
gust,
m/s
humid.,
%
clouds,
%
prec.,
mm/h
press.,
hPa
HPBL,
m
16 april, fri
fri1601:00+8ssw81744100 0.0 1014696
04:00+7s71661100 0.0 1013712
07:00+7s8178277 0.0 1012825
10:00+10s91661100 0.0 10121526
13:00+13s101844100 0.0 10102273
16:00+13s111747100 0.1 10072398
19:00+10s91571100 0.7 10071602
22:00+7ssw81183100 5.1 1008640
17 april, sat
sat1701:00+6s51183100 0.1 1009293
04:00+5ssw6138518 0.1 1010344
07:00+5s510872 0.0 1011290
10:00+10sw69480 0.0 1012785
13:00+14ssw573071 0.0 10122791
16:00+14sse342893 0.0 10102556
19:00+13wsw1136100 0.0 1010447
22:00+10n3345100 0.0 101056
18 april, sun
sun1801:00+8n4851100 0.0 1009148
04:00+6n51253100 0.0 1008256
07:00+5n71659100 0.0 1009470
10:00+8n9146279 0.0 1009790
13:00+12n1013439 0.0 10071595
16:00+14n10143885 0.0 10061815
19:00+13nne6124282 0.0 10061207
22:00+10nnw4134968 0.0 1006335
19 april, mon
mon1901:00+8nnw23570 0.0 100650
04:00+7nw33600 0.0 100637
07:00+6nw22620 0.0 100615
10:00+13nnw36435 0.0 1007679
13:00+17n47324 0.0 10052102
16:00+19n59265 0.0 10032603
19:00+17ne35335 0.0 1004247
22:00+14wsw223930 0.0 100513
20 april, tue
tue2001:00+12wsw48415 0.0 1006115
04:00+9n613595 0.0 1011594
07:00+8n7134147 0.0 1015994
10:00+8n811210 0.0 10181077
13:00+12n58190 0.0 10181522
16:00+15n610160 0.0 10171929
19:00+13ne36230 0.0 1018416
22:00+9ese11290 0.0 102010